"Pseudo-MPEC" for P20JEY5

Created 2018 Oct 12 22:18:07 UT using Find_Orb

Click here for an explanation of pseudo-MPECs

 
 Astrometry: 
     P20JEY5  C2018 10 10lMAstrometryl3N%^Oc$:Vc-Jmc\c39fwWZ[1ktT]!J*bYCgMP[$F52
     P20JEY5  C2018 10 10xx`a2SNcdbDZMi.'c(Qm.m'+ZT+eicch#$TVRqtn;TA^bIdL+o?mF52
     P20JEY5  C2018 10 10cxwU^xG%f%^t[jk0_`dZDM]cSh2L5uM4M\riZsI!x-O4QAD6'.q5F52
     P20JEY5 KC2018 10 10.iBwUo2+vXXr!lF$GDewX=rVSSe$YT3wdXFPcBQuT#v#!HHfyZ)qA17
     P20JEY5 KC2018 10 1077$Vo8d\:;FLaQi)(]_o8cJ:ej9ytdjeh4equ=!hHEK*ccj2!-\;A17
     P20JEY5 KC2018 10 10rMTK!rf:A'qpbiK*kpUv4@FsM)4y0BJ1:fw/]Q*#F%07v@gd8-d2A17
     P20JEY5 KC2018 10 10ZGF3WC8h7$?F;KPZNredacted;*`N0K?`k-J):4;O6bm_\PY!wtLL01
     P20JEY5 KC2018 10 10M.T2o\Bt(ec,H#t,04I$M#:#6;1B(?P:h36bir'R$*/xHpc\?AcBL01
     P20JEY5 KC2018 10 10[fYPADL#=#q`j-3%*?]4(56xxL=?5:TUM+vKWyB4J($W+76i0sW9L01
     P20JEY5 KC2018 10 10cm7a?/[.#5cPt:URmwfEOe6@.Gme`V2wr+,S9/BV9=pnodF5\LZ1K88
     P20JEY5 KC2018 10 10kqQyrEX!PUM[t%#*s@!AiegXGm92^dd7\cUn_#l@?LnyOyroTm8?K88
     P20JEY5 KC2018 10 11.88533601 47 21.51 +03 19 13.6          19.9 GVNEOCPJ95
     P20JEY5 KC2018 10 11.88928401 47 17.82 +03 20 42.2          19.4 GVNEOCPJ95
     P20JEY5 KC2018 10 12[q@Nd,g(J$342,MiRn/$bTo4#I'pBbA7+IXgs6+a$qmR`EI#eW2yH21
     P20JEY5 KC2018 10 125['_XCt41ClR=)7X-bK_J_LMV7_BkNWLsee35o90*$SPVJ3G(A/-H21
     P20JEY5 KC2018 10 12Z1Wt7_*OxLtL)F9?;,Oy0\P@-=g5^PCsaTGymQ(kWq`0Y=bqE!RAH21
     P20JEY5  C2018 10 12AWq*3MQ2@\nf9p]SrngidO:Et;E4gk8@uKG7h+T/Uk'_)q$Y1I-'246
     P20JEY5  C2018 10 12H4;i6`\05-X;EW*.@`y\g9f8qy$t,+B@f0`Huu/-jT-!9;Ayn#f-246
     P20JEY5  C2018 10 12CYXB]ROhuIh;4(c/#rG'#H@rCsfF9NDr,fU_;w4??OSGlb$XKy[M246
     P20JEY5  C2018 10 12sSpl?q`G;XT'hmwe[+0oRV11ti\tJdm#Z:v+DFXR(FE%fZAqDj#!246
     P20JEY5  C2018 10 124NjKHn5pqIdGUdk!vw)wvbcV]4M7(L)LQ+@f!kie9D)^6]#NEOCP246

Station data:
(246) Klet Observatory-KLENOT  (N48.863293 E14.288100)  Czech Republic.
   1.06-m KLENOT telescope.
(A17) Guidestar Observatory, Weinheim  (N49.545393 E8.681520)  Germany.
(F52) Pan-STARRS 2, Haleakala  (N20.707384 W156.255910)  US/Hawaii.
(H21) Astronomical Research Observatory, Westfield  (N39.483057 W87.968270)
   US/Illinois. 0.76-m f/3.0 astrograph + CCD.
(J95) Great Shefford  (N51.474969 W1.447003)  UK.  Observer P. Birtwhistle.
   0.40-m f/6.0 Schmidt-Cassegrain + CCD.
(K88) GINOP-KHK, Piszkéstető  (N47.917622 E19.893600)  Hungary.  Observer K.
   Sárneczky. 0.60-m Schmidt + CCD.
(L01) Višnjan Observatory, Tičan  (N45.290900 E13.749300)  Croatia.  Observer
   K. Korlević. 1.0-m f/2.9 reflector + CCD.

Orbital elements:  P20JEY5
   Perihelion 2018 Dec 30.977502 +/- 0.203 TT = 23:27:36 (JD 2458483.477502)
Epoch 2018 Oct 12.0 TT = JDT 2458403.5   Earth MOID: 0.0323   AutoNEOCP
M 285.71134 +/- 0.21                (J2000 ecliptic)
n   0.92886936 +/- 0.000322         Peri.   77.80103 +/- 0.20
a   1.04031842 +/- 0.00024          Node    19.39155 +/- 0.00038
e   0.0387457 +/- 9.38e-5           Incl.   14.59768 +/- 0.032
P   1.06/387.56d           H 26.4   G  0.15   U  7.3  
q 1.00001046 +/- 0.000138    Q 1.08062639 +/- 0.000345
From 21 observations 2018 Oct. 10-12; mean residual 0".54
Residuals in arcseconds: 
181010 F52  .38+  .02+    181010 L01  .52-  .13+    181012 H21  .38+  .27-    
181010 F52  .14+  .15+    181010 L01  .27-  .05+    181012 H21  .23+  .41-    
181010 F52  .07-  .66+    181010 K88  .56-  .83+    181012 246  .24-  .08+    
181010 A17  .74+  .09-    181010 K88  .45-  .39+    181012 246  .37+  .27-    
181010 A17  .49+  .54-    181011 J95  .50-  .50+    181012 246  .54+  1.3+    
181010 A17  1.5+  1.5-    181011 J95  .12+  .59-    181012 246  .56+  .23-    
181010 L01  .12-  .11+    181012 H21  .10+  .23-    181012 246  .13+  .36+    

Ephemerides (geocentric):
Date (UTC) HH   RA              Dec         delta   r     elong  mag " sig PA
---- -- -- --  -------------   -----------  ------ ------ -----  --- ---- ---
2018 10 12 22  01 31 09.481   +10 01 43.88  .03251 1.0303 174.5 19.5  .39 142
2018 10 12 23  01 30 29.040   +10 18 08.81  .03250 1.0303 174.5 19.5  .38 141
2018 10 13 00  01 29 48.485   +10 34 34.46  .03248 1.0302 174.6 19.5  .37 140
2018 10 13 01  01 29 07.815   +10 51 00.75  .03246 1.0302 174.6 19.5  .36 140
2018 10 13 02  01 28 27.033   +11 07 27.61  .03245 1.0302 174.6 19.5  .35 139
2018 10 13 03  01 27 46.137   +11 23 54.97  .03244 1.0302 174.6 19.5  .33 138
2018 10 13 04  01 27 05.129   +11 40 22.75  .03242 1.0301 174.5 19.5  .32 137
2018 10 13 05  01 26 24.009   +11 56 50.88  .03241 1.0301 174.5 19.5  .31 135
2018 10 13 06  01 25 42.776   +12 13 19.28  .03240 1.0301 174.4 19.5  .30 134
2018 10 13 07  01 25 01.433   +12 29 47.88  .03239 1.0300 174.3 19.5  .28 133
2018 10 13 08  01 24 19.979   +12 46 16.60  .03238 1.0300 174.2 19.5  .27 131
2018 10 13 09  01 23 38.415   +13 02 45.37  .03238 1.0300 174.0 19.5  .25 129
2018 10 13 10  01 22 56.740   +13 19 14.10  .03237 1.0300 173.9 19.5  .24 127
2018 10 13 11  01 22 14.957   +13 35 42.72  .03236 1.0299 173.7 19.5  .23 125
2018 10 13 12  01 21 33.065   +13 52 11.17  .03236 1.0299 173.6 19.5  .21 122
2018 10 13 13  01 20 51.064   +14 08 39.35  .03236 1.0299 173.4 19.5  .20 119
2018 10 13 14  01 20 08.956   +14 25 07.19  .03236 1.0299 173.2 19.5  .18 115
2018 10 13 15  01 19 26.740   +14 41 34.62  .03235 1.0298 173.0 19.5  .17 111
2018 10 13 16  01 18 44.418   +14 58 01.57  .03235 1.0298 172.8 19.5  .16 106
2018 10 13 17  01 18 01.990   +15 14 27.94  .03236 1.0298 172.5 19.5  .14 100
2018 10 13 18  01 17 19.456   +15 30 53.67  .03236 1.0298 172.3 19.6  .13  92
2018 10 13 19  01 16 36.818   +15 47 18.69  .03236 1.0297 172.1 19.6  .13  84
2018 10 13 20  01 15 54.075   +16 03 42.91  .03237 1.0297 171.8 19.6  .12  74
2018 10 13 21  01 15 11.228   +16 20 06.26  .03237 1.0297 171.6 19.6  .12  64
2018 10 13 22  01 14 28.278   +16 36 28.66  .03238 1.0296 171.3 19.6  .12  53
2018 10 13 23  01 13 45.226   +16 52 50.04  .03239 1.0296 171.0 19.6  .13  43
2018 10 14 00  01 13 02.073   +17 09 10.33  .03239 1.0296 170.8 19.6  .14  35
2018 10 14 01  01 12 18.818   +17 25 29.44  .03240 1.0296 170.5 19.6  .15  27
2018 10 14 02  01 11 35.462   +17 41 47.30  .03241 1.0295 170.2 19.6  .17  20
2018 10 14 03  01 10 52.007   +17 58 03.84  .03243 1.0295 170.0 19.7  .19  15
2018 10 14 04  01 10 08.453   +18 14 18.99  .03244 1.0295 169.7 19.7  .20  10
2018 10 14 05  01 09 24.801   +18 30 32.67  .03245 1.0295 169.4 19.7  .22   6
2018 10 14 06  01 08 41.051   +18 46 44.81  .03247 1.0294 169.1 19.7  .25   3
2018 10 14 07  01 07 57.204   +19 02 55.33  .03248 1.0294 168.8 19.7  .27   0
2018 10 14 08  01 07 13.260   +19 19 04.16  .03250 1.0294 168.5 19.7  .29 178
2018 10 14 09  01 06 29.222   +19 35 11.24  .03252 1.0294 168.2 19.7  .32 176
2018 10 14 10  01 05 45.089   +19 51 16.49  .03254 1.0293 168.0 19.7  .34 174
2018 10 14 11  01 05 00.862   +20 07 19.84  .03256 1.0293 167.7 19.8  .37 172
2018 10 14 12  01 04 16.541   +20 23 21.22  .03258 1.0293 167.4 19.8  .39 171
2018 10 14 13  01 03 32.129   +20 39 20.55  .03260 1.0292 167.1 19.8  .42 169
2018 10 14 14  01 02 47.625   +20 55 17.79  .03263 1.0292 166.8 19.8  .45 168
2018 10 14 15  01 02 03.030   +21 11 12.84  .03265 1.0292 166.5 19.8  .47 167
2018 10 14 16  01 01 18.346   +21 27 05.65  .03267 1.0292 166.2 19.8  .50 166
2018 10 14 17  01 00 33.572   +21 42 56.15  .03270 1.0291 165.9 19.8  .53 165
2018 10 14 18  00 59 48.711   +21 58 44.28  .03273 1.0291 165.6 19.8  .56 164
2018 10 14 19  00 59 03.762   +22 14 29.97  .03276 1.0291 165.3 19.8  .59 164
2018 10 14 20  00 58 18.727   +22 30 13.15  .03279 1.0291 165.0 19.9  .62 163
2018 10 14 21  00 57 33.606   +22 45 53.76  .03282 1.0290 164.7 19.9  .65 162